• In Kazakhstan
  • List of Countries
  • For 7 days
  • Water Temperature
  • Satellite Maps
  • Weather Map
  • News
  • Weather Widgets
  • user-avatar
    Login

    Hourly Weather Batina

    Today, 18 July, Thursday

    Time Temperature Precipitation Wind Pressure Humidity
    00:00 +25°C° 0 mm 2 mps 671 mmHg 43%
    01:00 +25°C° 0.1 mm 2 mps 670 mmHg 45%
    02:00 +25°C° 0.1 mm 2 mps 670 mmHg 47%
    03:00 +24°C° 0.1 mm 1 mps 669 mmHg 49%
    04:00 +24°C° 0.2 mm 2 mps 670 mmHg 48%
    05:00 +25°C° 0.2 mm 2 mps 670 mmHg 47%
    06:00 +25°C° 0 mm 2 mps 671 mmHg 47%
    07:00 +26°C° 0.4 mm 2 mps 671 mmHg 45%
    08:00 +27°C° 0.4 mm 3 mps 671 mmHg 43%
    09:00 +28°C° 0.4 mm 3 mps 672 mmHg 41%
    10:00 +29°C° 0 mm 3 mps 672 mmHg 37%
    11:00 +30°C° 0 mm 4 mps 672 mmHg 33%
    12:00 +33°C° 0 mm 5 mps 673 mmHg 29%
    13:00 +33°C° 0 mm 5 mps 672 mmHg 28%
    14:00 +33°C° 0 mm 5 mps 672 mmHg 27%
    15:00 +33°C° 0 mm 6 mps 672 mmHg 27%
    16:00 +32°C° 0 mm 6 mps 672 mmHg 27%
    17:00 +30°C° 0 mm 6 mps 672 mmHg 28%
    18:00 +29°C° 0 mm 6 mps 672 mmHg 29%
    19:00 +28°C° 0 mm 5 mps 672 mmHg 33%
    20:00 +26°C° 0 mm 4 mps 672 mmHg 37%
    21:00 +25°C° 0 mm 3 mps 672 mmHg 41%
    22:00 +24°C° 0 mm 3 mps 672 mmHg 43%
    23:00 +24°C° 0 mm 2 mps 672 mmHg 46%

    Tomorrow, 19 July, Friday

    Time Temperature Precipitation Wind Pressure Humidity
    00:00 +23°C° 0 mm 2 mps 672 mmHg 48%
    01:00 +22°C° 0 mm 1 mps 672 mmHg 49%
    02:00 +22°C° 0 mm 1 mps 671 mmHg 50%
    03:00 +22°C° 0 mm 1 mps 671 mmHg 51%
    04:00 +23°C° 0 mm 1 mps 671 mmHg 47%
    05:00 +24°C° 0 mm 1 mps 672 mmHg 44%
    06:00 +25°C° 0 mm 1 mps 672 mmHg 40%
    07:00 +26°C° 0 mm 1 mps 673 mmHg 37%
    08:00 +28°C° 0 mm 2 mps 674 mmHg 33%
    09:00 +29°C° 0 mm 2 mps 674 mmHg 29%
    10:00 +31°C° 0 mm 3 mps 674 mmHg 28%
    11:00 +33°C° 0 mm 4 mps 675 mmHg 27%
    12:00 +34°C° 0 mm 5 mps 675 mmHg 25%
    13:00 +34°C° 0 mm 5 mps 674 mmHg 25%
    14:00 +34°C° 0 mm 5 mps 674 mmHg 25%
    15:00 +34°C° 0 mm 5 mps 674 mmHg 25%
    16:00 +34°C° 0 mm 4 mps 674 mmHg 27%
    17:00 +33°C° 0 mm 4 mps 673 mmHg 28%
    18:00 +31°C° 0 mm 3 mps 673 mmHg 30%
    19:00 +30°C° 0 mm 2 mps 673 mmHg 33%
    20:00 +29°C° 0 mm 2 mps 673 mmHg 36%
    21:00 +27°C° 0 mm 1 mps 673 mmHg 40%
    22:00 +27°C° 0 mm 1 mps 672 mmHg 41%
    23:00 +26°C° 0 mm 1 mps 672 mmHg 42%

    Day after tomorrow, 20 July, Saturday

    Time Temperature Precipitation Wind Pressure Humidity
    00:00 +26°C° 0 mm 1 mps 672 mmHg 43%
    01:00 +25°C° 0 mm 1 mps 672 mmHg 44%
    02:00 +25°C° 0 mm 1 mps 672 mmHg 45%
    03:00 +25°C° 0 mm 1 mps 672 mmHg 47%
    04:00 +25°C° 0 mm 2 mps 672 mmHg 45%
    05:00 +26°C° 0 mm 2 mps 673 mmHg 43%
    06:00 +27°C° 0 mm 3 mps 673 mmHg 41%
    07:00 +28°C° 0 mm 4 mps 674 mmHg 37%
    08:00 +30°C° 0 mm 5 mps 674 mmHg 33%
    09:00 +33°C° 0 mm 6 mps 675 mmHg 29%
    10:00 +34°C° 0 mm 6 mps 675 mmHg 27%
    11:00 +35°C° 0 mm 7 mps 675 mmHg 25%
    12:00 +36°C° 0 mm 7 mps 675 mmHg 24%
    13:00 +35°C° 0 mm 7 mps 675 mmHg 24%
    14:00 +35°C° 0 mm 6 mps 674 mmHg 24%
    15:00 +35°C° 0 mm 6 mps 674 mmHg 25%
    16:00 +34°C° 0.1 mm 5 mps 674 mmHg 26%
    17:00 +34°C° 0.1 mm 4 mps 674 mmHg 27%
    18:00 +33°C° 0.1 mm 4 mps 674 mmHg 28%
    19:00 +32°C° 0.1 mm 4 mps 674 mmHg 31%
    20:00 +30°C° 0.1 mm 4 mps 674 mmHg 33%
    21:00 +29°C° 0.1 mm 3 mps 674 mmHg 36%
    22:00 +28°C° 0.1 mm 3 mps 674 mmHg 38%
    23:00 +27°C° 0.1 mm 2 mps 674 mmHg 41%

    21 July, Sunday

    Time Temperature Precipitation Wind Pressure Humidity
    00:00 +27°C° 0.1 mm 2 mps 673 mmHg 43%
    01:00 +26°C° 0 mm 2 mps 673 mmHg 44%
    02:00 +26°C° 0 mm 2 mps 673 mmHg 45%
    03:00 +25°C° 0 mm 1 mps 672 mmHg 45%
    04:00 +26°C° 0 mm 2 mps 673 mmHg 43%
    05:00 +27°C° 0 mm 2 mps 674 mmHg 41%
    06:00 +28°C° 0 mm 2 mps 674 mmHg 38%
    07:00 +29°C° 0 mm 2 mps 675 mmHg 35%
    08:00 +31°C° 0 mm 2 mps 675 mmHg 32%
    09:00 +32°C° 0 mm 2 mps 676 mmHg 29%
    10:00 +34°C° 0 mm 3 mps 676 mmHg 27%
    11:00 +35°C° 0 mm 3 mps 676 mmHg 24%
    12:00 +36°C° 0 mm 4 mps 676 mmHg 22%
    13:00 +36°C° 0 mm 5 mps 676 mmHg 22%
    14:00 +36°C° 0 mm 5 mps 675 mmHg 21%
    15:00 +36°C° 0 mm 5 mps 675 mmHg 20%
    16:00 +35°C° 0 mm 5 mps 675 mmHg 21%
    17:00 +34°C° 0 mm 5 mps 675 mmHg 23%
    18:00 +33°C° 0 mm 4 mps 675 mmHg 24%
    19:00 +32°C° 0 mm 4 mps 675 mmHg 29%
    20:00 +29°C° 0 mm 3 mps 675 mmHg 34%
    21:00 +27°C° 0 mm 2 mps 675 mmHg 38%
    22:00 +26°C° 0 mm 1 mps 674 mmHg 41%
    23:00 +26°C° 0 mm 1 mps 674 mmHg 45%

    22 July, Monday

    Time Temperature Precipitation Wind Pressure Humidity
    00:00 +25°C° 0 mm 1 mps 674 mmHg 48%
    01:00 +24°C° 0 mm 1 mps 674 mmHg 51%
    02:00 +24°C° 0 mm 1 mps 673 mmHg 55%
    03:00 +21°C° 0 mm 0 mps 673 mmHg 59%
    04:00 +24°C° 0 mm 1 mps 674 mmHg 56%
    05:00 +24°C° 0 mm 1 mps 674 mmHg 52%
    06:00 +25°C° 0 mm 1 mps 675 mmHg 49%
    07:00 +26°C° 0 mm 1 mps 675 mmHg 44%
    08:00 +28°C° 0 mm 2 mps 676 mmHg 38%
    09:00 +29°C° 0 mm 2 mps 676 mmHg 33%
    10:00 +31°C° 0 mm 2 mps 676 mmHg 29%
    11:00 +33°C° 0 mm 3 mps 676 mmHg 26%
    12:00 +34°C° 0 mm 4 mps 676 mmHg 23%
    13:00 +34°C° 0 mm 4 mps 676 mmHg 22%
    14:00 +34°C° 0 mm 4 mps 676 mmHg 21%
    15:00 +34°C° 0 mm 4 mps 675 mmHg 20%
    16:00 +34°C° 0 mm 4 mps 675 mmHg 21%
    17:00 +33°C° 0 mm 4 mps 675 mmHg 23%
    18:00 +32°C° 0 mm 4 mps 674 mmHg 24%
    19:00 +30°C° 0 mm 3 mps 674 mmHg 29%
    20:00 +28°C° 0 mm 3 mps 674 mmHg 33%
    21:00 +27°C° 0 mm 2 mps 674 mmHg 38%
    22:00 +26°C° 0 mm 2 mps 674 mmHg 39%
    23:00 +26°C° 0 mm 2 mps 674 mmHg 40%

    23 July, Tuesday

    Time Temperature Precipitation Wind Pressure Humidity
    00:00 +25°C° 0 mm 2 mps 673 mmHg 41%
    01:00 +24°C° 0 mm 2 mps 673 mmHg 42%
    02:00 +24°C° 0 mm 1 mps 673 mmHg 42%
    03:00 +23°C° 0 mm 1 mps 672 mmHg 43%
    04:00 +24°C° 0 mm 1 mps 673 mmHg 41%
    05:00 +24°C° 0 mm 2 mps 673 mmHg 39%
    06:00 +25°C° 0 mm 2 mps 674 mmHg 36%
    07:00 +27°C° 0 mm 2 mps 674 mmHg 34%
    08:00 +28°C° 0 mm 2 mps 674 mmHg 31%
    09:00 +29°C° 0 mm 2 mps 675 mmHg 28%
    10:00 +30°C° 0 mm 2 mps 675 mmHg 26%
    11:00 +31°C° 0 mm 3 mps 675 mmHg 24%
    12:00 +33°C° 0 mm 3 mps 675 mmHg 22%
    13:00 +33°C° 0 mm 4 mps 674 mmHg 22%
    14:00 +33°C° 0 mm 4 mps 674 mmHg 22%
    15:00 +34°C° 0 mm 5 mps 673 mmHg 22%
    16:00 +33°C° 0 mm 4 mps 673 mmHg 22%
    17:00 +32°C° 0 mm 4 mps 673 mmHg 23%
    18:00 +32°C° 0 mm 4 mps 672 mmHg 24%
    19:00 +29°C° 0 mm 3 mps 672 mmHg 27%
    20:00 +28°C° 0 mm 2 mps 672 mmHg 29%
    21:00 +27°C° 0 mm 2 mps 672 mmHg 31%
    22:00 +26°C° 0 mm 2 mps 672 mmHg 31%
    23:00 +26°C° 0 mm 2 mps 672 mmHg 32%
    Show more